{"data":{"norad_id":45445,"epoch":"2026-05-25T03:18:36.966240Z","epoch_age_seconds":73419,"freshness":"FRESH","line1":"1 45445U 20020X   26145.13792785 -.00000050  00000+0 -17898-3 0  9998","line2":"2 45445  87.8903  25.6553 0001951  79.4672 280.6676 13.10885914299630","mean_motion":13.10885914,"eccentricity":0.0001951,"inclination_deg":87.8903,"raan_deg":25.6553,"arg_perigee_deg":79.4672,"mean_anomaly_deg":280.6676,"bstar":-0.00017898,"rev_number":29963,"period_min":109.8493762593,"perigee_km":1218.2515586769,"apogee_km":1221.2162479034,"semimajor_km":7597.8709032902,"source":"CELESTRAK","updated_at":"2026-05-25T13:38:22.345323Z"}}